Hourly Data Report for October 14, 2016

All times are specified in Local Standard Time (LST). Add 1 hour to adjust for Daylight Saving Time where and when it is observed.

PETAWAWA AWOS 2
ONTARIO

45°57'00.000" N
77°19'00.000" W
130.10 m
6106396
71625
YWA

Download Data

Hourly Data (October 2016)
Hourly Data Report for October 14, 2016
Temp Definition
°C
Dew Point Temp Definition
°C
Rel Hum Definition
%
Wind Dir Definition
10's deg

Wind Spd Definition
km/h
Visibility Definition
km
Stn Press Definition
kPa
Hmdx Definition


Wind Chill Definition


Weather Definition


TIME
00:00 -0.5 -1.8 91   0 14.5 101.00     LegendNANA
01:00 -0.8 -1.1 98   0 14.5 101.05     LegendNANA
02:00 -1.2 -1.5 98   0 14.5 101.08     LegendNANA
03:00 0.0 -0.4 97 23 4 14.5 101.11   -1 LegendNANA
04:00 0.9 0.6 98   0 14.5 101.14     LegendNANA
05:00 1.4 1.1 98   0 14.5 101.20     LegendNANA
06:00 2.1 1.8 98   0 14.5 101.26     LegendNANA
07:00 3.7 2.2 90 17 6 14.5 101.29     LegendNANA
08:00 4.8 2.2 83 15 4 14.5 101.34     LegendNANA
09:00 5.9 2.4 78 20 4 14.5 101.35     LegendNANA
10:00 7.4 2.7 72 13 4 14.5 101.37     LegendNANA
11:00 8.3 3.8 73 11 9 14.5 101.32     LegendNANA
12:00 10.4 4.0 64 20 7 14.5 101.24     LegendNANA
13:00 11.7 4.0 59 18 11 14.5 101.19     LegendNANA
14:00 11.6 4.2 60 19 9 14.5 101.12     Rain
15:00 11.4 4.2 61 21 7 14.5 101.11     LegendNANA
16:00 11.0 4.4 64 16 4 14.5 101.09     LegendNANA
17:00 11.1 3.9 61 16 9 14.5 101.02     LegendNANA
18:00 10.5 3.6 62 16 9 14.5 101.04     LegendNANA
19:00 10.2 4.1 66 16 9 14.5 100.98     LegendNANA
20:00 9.5 4.6 71 16 11 14.5 100.93     LegendNANA
21:00 8.3 4.4 76 19 7 14.5 100.99     LegendNANA
22:00 7.6 4.1 78 19 11 14.5 101.04     LegendNANA
23:00 6.6 3.9 83 19 6 14.5 100.99     LegendNANA

Notes on Data Quality.

Legend

  • E = Estimated
  • M = Missing
  • NA = Not Available
  • ‡ = Partner data that is not subject to review by the National Climate Archives
Date modified: